Time,TemperatureF,DewpointF,PressureIn,WindDirection,WindDirectionDegrees,WindSpeedMPH,WindSpeedGustMPH,Humidity,HourlyPrecipIn,Conditions,Clouds,dailyrainin,SoftwareType,DateUTC
2013-03-29 00:03:00,54.0,43.0,30.28,NNE,25,0.0,0.0,65,0.00,,,0.00,,2013-03-29 04:03:00,
2013-03-29 00:13:00,54.0,43.0,30.28,NNE,25,0.0,0.0,65,0.00,,,0.00,,2013-03-29 04:13:00,
2013-03-29 00:22:00,54.0,42.0,30.28,NE,37,0.0,0.0,64,0.00,,,0.00,,2013-03-29 04:22:00,
2013-03-29 00:33:00,53.0,41.0,30.28,NE,37,0.0,0.0,64,0.00,,,0.00,,2013-03-29 04:33:00,
2013-03-29 00:43:00,53.0,41.0,30.28,NE,37,0.0,0.0,64,0.00,,,0.00,,2013-03-29 04:43:00,
2013-03-29 00:53:00,53.0,41.0,30.28,NE,37,0.0,0.0,64,0.00,,,0.00,,2013-03-29 04:53:00,
2013-03-29 01:03:00,52.0,41.0,30.28,NE,38,0.0,0.0,65,0.00,,,0.00,,2013-03-29 05:03:00,
2013-03-29 01:12:00,52.0,41.0,30.28,NE,38,0.0,0.0,65,0.00,,,0.00,,2013-03-29 05:12:00,
2013-03-29 01:23:00,52.0,41.0,30.27,NE,39,0.0,0.0,66,0.00,,,0.00,,2013-03-29 05:23:00,
2013-03-29 01:33:00,51.0,41.0,30.28,NE,39,0.0,0.0,68,0.00,,,0.00,,2013-03-29 05:33:00,
2013-03-29 01:43:00,51.0,41.0,30.28,NE,39,0.0,0.0,68,0.00,,,0.00,,2013-03-29 05:43:00,
2013-03-29 01:52:00,50.0,41.0,30.27,NE,39,0.0,0.0,70,0.00,,,0.00,,2013-03-29 05:52:00,
2013-03-29 02:02:00,49.0,40.0,30.27,NE,39,0.0,0.0,72,0.00,,,0.00,,2013-03-29 06:02:00,
2013-03-29 02:12:00,49.0,40.0,30.27,NE,39,0.0,0.0,72,0.00,,,0.00,,2013-03-29 06:12:00,
2013-03-29 02:23:00,49.0,41.0,30.27,NE,38,0.0,0.0,73,0.00,,,0.00,,2013-03-29 06:23:00,
2013-03-29 02:32:00,49.0,41.0,30.27,NE,38,0.0,0.0,74,0.00,,,0.00,,2013-03-29 06:32:00,
2013-03-29 02:42:00,49.0,41.0,30.27,NE,38,0.0,0.0,74,0.00,,,0.00,,2013-03-29 06:42:00,
2013-03-29 02:52:00,48.0,40.0,30.27,NE,38,0.0,0.0,74,0.00,,,0.00,,2013-03-29 06:52:00,
2013-03-29 03:03:00,48.0,40.0,30.27,NE,39,0.0,0.0,75,0.00,,,0.00,,2013-03-29 07:03:00,
2013-03-29 03:12:00,48.0,40.0,30.27,NE,39,0.0,0.0,75,0.00,,,0.00,,2013-03-29 07:12:00,
2013-03-29 03:22:00,47.0,40.0,30.27,NE,38,0.0,0.0,77,0.00,,,0.00,,2013-03-29 07:22:00,
2013-03-29 03:32:00,47.0,41.0,30.26,NE,39,0.0,0.0,79,0.00,,,0.00,,2013-03-29 07:32:00,
2013-03-29 03:42:00,47.0,41.0,30.26,NE,39,0.0,0.0,79,0.00,,,0.00,,2013-03-29 07:42:00,
2013-03-29 03:52:00,47.0,41.0,30.26,NE,39,0.0,0.0,79,0.00,,,0.00,,2013-03-29 07:52:00,
2013-03-29 04:02:00,47.0,41.0,30.26,NE,39,0.0,0.0,79,0.00,,,0.00,,2013-03-29 08:02:00,
2013-03-29 04:12:00,47.0,41.0,30.26,NE,39,0.0,0.0,79,0.00,,,0.00,,2013-03-29 08:12:00,
2013-03-29 04:22:00,47.0,41.0,30.25,NE,38,0.0,0.0,80,0.00,,,0.00,,2013-03-29 08:22:00,
2013-03-29 04:32:00,46.0,41.0,30.25,NE,39,0.0,0.0,81,0.00,,,0.00,,2013-03-29 08:32:00,
2013-03-29 04:42:00,46.0,41.0,30.25,NE,39,0.0,0.0,81,0.00,,,0.00,,2013-03-29 08:42:00,
2013-03-29 04:53:00,46.0,41.0,30.25,NE,39,0.0,0.0,81,0.00,,,0.00,,2013-03-29 08:53:00,
2013-03-29 05:02:00,45.0,40.0,30.26,NE,38,0.0,0.0,82,0.00,,,0.00,,2013-03-29 09:02:00,
2013-03-29 05:13:00,45.0,40.0,30.26,NE,38,0.0,0.0,82,0.00,,,0.00,,2013-03-29 09:13:00,
2013-03-29 05:22:00,45.0,40.0,30.26,NE,38,0.0,0.0,83,0.00,,,0.00,,2013-03-29 09:22:00,
2013-03-29 05:33:00,45.0,40.0,30.26,NE,39,0.0,0.0,83,0.00,,,0.00,,2013-03-29 09:33:00,
2013-03-29 05:43:00,45.0,40.0,30.26,NE,39,0.0,0.0,83,0.00,,,0.00,,2013-03-29 09:43:00,
2013-03-29 05:52:00,46.0,41.0,30.26,NE,38,0.0,0.0,84,0.00,,,0.00,,2013-03-29 09:52:00,
2013-03-29 06:03:00,46.0,41.0,30.26,NE,39,0.0,0.0,84,0.00,,,0.00,,2013-03-29 10:03:00,
2013-03-29 06:12:00,46.0,41.0,30.26,NE,39,0.0,0.0,84,0.00,,,0.00,,2013-03-29 10:12:00,
2013-03-29 06:23:00,46.0,41.0,30.26,NE,39,0.0,0.0,84,0.00,,,0.00,,2013-03-29 10:23:00,
2013-03-29 06:33:00,46.0,41.0,30.27,NE,39,0.0,0.0,84,0.00,,,0.00,,2013-03-29 10:33:00,
2013-03-29 06:42:00,46.0,41.0,30.27,NE,39,0.0,0.0,84,0.00,,,0.00,,2013-03-29 10:42:00,
2013-03-29 06:53:00,46.0,41.0,30.27,NE,39,0.0,0.0,84,0.00,,,0.00,,2013-03-29 10:53:00,
2013-03-29 07:03:00,46.0,41.0,30.28,NE,39,0.0,0.0,84,0.00,,,0.00,,2013-03-29 11:03:00,
2013-03-29 07:12:00,46.0,41.0,30.28,NE,39,0.0,0.0,84,0.00,,,0.00,,2013-03-29 11:12:00,
2013-03-29 07:23:00,46.0,41.0,30.28,NE,38,0.0,0.0,84,0.00,,,0.00,,2013-03-29 11:23:00,
2013-03-29 07:33:00,46.0,42.0,30.29,NE,38,0.0,0.0,85,0.00,,,0.00,,2013-03-29 11:33:00,
2013-03-29 07:42:00,46.0,42.0,30.29,NE,38,0.0,0.0,85,0.00,,,0.00,,2013-03-29 11:42:00,
2013-03-29 07:53:00,47.0,42.0,30.29,NE,38,0.0,0.0,84,0.00,,,0.00,,2013-03-29 11:53:00,
2013-03-29 08:03:00,47.0,42.0,30.29,NE,38,0.0,0.0,84,0.00,,,0.00,,2013-03-29 12:03:00,
2013-03-29 08:12:00,47.0,42.0,30.29,NE,38,0.0,0.0,84,0.00,,,0.00,,2013-03-29 12:12:00,
2013-03-29 08:22:00,48.0,43.0,30.30,NE,39,0.0,0.0,84,0.00,,,0.00,,2013-03-29 12:22:00,
2013-03-29 08:32:00,50.0,45.0,30.30,NE,38,0.0,0.0,83,0.00,,,0.00,,2013-03-29 12:32:00,
2013-03-29 08:42:00,50.0,45.0,30.30,NE,38,0.0,0.0,83,0.00,,,0.00,,2013-03-29 12:42:00,
2013-03-29 08:53:00,52.0,47.0,30.31,ENE,60,0.0,2.0,82,0.00,,,0.00,,2013-03-29 12:53:00,
2013-03-29 09:03:00,54.0,48.0,30.31,ENE,75,0.0,5.0,80,0.00,,,0.00,,2013-03-29 13:03:00,
2013-03-29 09:12:00,54.0,48.0,30.31,ENE,75,0.0,5.0,80,0.00,,,0.00,,2013-03-29 13:12:00,
2013-03-29 09:22:00,56.0,49.0,30.32,East,86,1.0,5.0,76,0.00,,,0.00,,2013-03-29 13:22:00,
2013-03-29 09:32:00,58.0,49.0,30.32,ENE,60,5.0,9.0,71,0.00,,,0.00,,2013-03-29 13:32:00,
2013-03-29 09:42:00,58.0,49.0,30.32,ENE,60,5.0,9.0,71,0.00,,,0.00,,2013-03-29 13:42:00,
2013-03-29 09:53:00,60.0,49.0,30.33,ENE,58,2.0,9.0,66,0.00,,,0.00,,2013-03-29 13:53:00,
2013-03-29 10:03:00,62.0,48.0,30.33,East,80,3.0,10.0,60,0.00,,,0.00,,2013-03-29 14:03:00,
2013-03-29 10:12:00,62.0,48.0,30.33,East,80,3.0,10.0,60,0.00,,,0.00,,2013-03-29 14:12:00,
2013-03-29 10:22:00,64.0,48.0,30.33,East,97,3.0,9.0,56,0.00,,,0.00,,2013-03-29 14:22:00,
2013-03-29 10:32:00,65.0,48.0,30.33,ENE,68,2.0,11.0,54,0.00,,,0.00,,2013-03-29 14:32:00,
2013-03-29 10:42:00,65.0,48.0,30.33,ENE,68,2.0,11.0,54,0.00,,,0.00,,2013-03-29 14:42:00,
2013-03-29 10:53:00,66.0,45.0,30.34,East,97,5.0,12.0,47,0.00,,,0.00,,2013-03-29 14:53:00,
2013-03-29 11:02:00,67.0,43.0,30.34,East,80,4.0,10.0,42,0.00,,,0.00,,2013-03-29 15:02:00,
2013-03-29 11:12:00,67.0,43.0,30.34,East,80,4.0,10.0,42,0.00,,,0.00,,2013-03-29 15:12:00,
2013-03-29 11:22:00,68.0,42.0,30.34,ENE,66,3.0,9.0,39,0.00,,,0.00,,2013-03-29 15:22:00,
2013-03-29 11:33:00,69.0,42.0,30.33,SSE,147,2.0,10.0,37,0.00,,,0.00,,2013-03-29 15:33:00,
2013-03-29 11:43:00,69.0,42.0,30.33,SSE,147,2.0,10.0,37,0.00,,,0.00,,2013-03-29 15:43:00,
2013-03-29 11:53:00,70.0,42.0,30.32,East,83,3.0,9.0,36,0.00,,,0.00,,2013-03-29 15:53:00,
2013-03-29 12:03:00,70.0,40.0,30.32,NE,56,5.0,10.0,33,0.00,,,0.00,,2013-03-29 16:03:00,
2013-03-29 12:13:00,70.0,40.0,30.32,NE,56,5.0,10.0,33,0.00,,,0.00,,2013-03-29 16:13:00,
2013-03-29 12:23:00,71.0,40.0,30.31,ENE,63,3.0,9.0,32,0.00,,,0.00,,2013-03-29 16:23:00,
2013-03-29 12:33:00,71.0,40.0,30.31,ENE,73,5.0,10.0,32,0.00,,,0.00,,2013-03-29 16:33:00,
2013-03-29 12:43:00,71.0,40.0,30.31,ENE,73,5.0,10.0,32,0.00,,,0.00,,2013-03-29 16:43:00,
2013-03-29 12:53:00,71.0,40.0,30.30,ESE,110,2.0,9.0,32,0.00,,,0.00,,2013-03-29 16:53:00,
2013-03-29 13:03:00,72.0,40.0,30.30,East,79,3.0,10.0,31,0.00,,,0.00,,2013-03-29 17:03:00,
2013-03-29 13:12:00,72.0,40.0,30.30,East,79,3.0,10.0,31,0.00,,,0.00,,2013-03-29 17:12:00,
2013-03-29 13:23:00,73.0,39.0,30.29,ENE,68,3.0,9.0,29,0.00,,,0.00,,2013-03-29 17:23:00,
2013-03-29 13:33:00,73.0,39.0,30.28,SE,127,1.0,8.0,29,0.00,,,0.00,,2013-03-29 17:33:00,
2013-03-29 13:43:00,73.0,39.0,30.28,SE,127,1.0,8.0,29,0.00,,,0.00,,2013-03-29 17:43:00,
2013-03-29 13:53:00,73.0,39.0,30.28,NNE,25,2.0,8.0,29,0.00,,,0.00,,2013-03-29 17:53:00,
2013-03-29 14:02:00,74.0,40.0,30.27,ENE,69,5.0,9.0,29,0.00,,,0.00,,2013-03-29 18:02:00,
2013-03-29 14:12:00,74.0,40.0,30.27,ENE,69,5.0,9.0,29,0.00,,,0.00,,2013-03-29 18:12:00,
2013-03-29 14:23:00,74.0,40.0,30.27,East,87,4.0,9.0,29,0.00,,,0.00,,2013-03-29 18:23:00,
2013-03-29 14:32:00,74.0,39.0,30.26,ENE,70,1.0,9.0,28,0.00,,,0.00,,2013-03-29 18:32:00,
2013-03-29 14:42:00,74.0,39.0,30.26,ENE,70,1.0,9.0,28,0.00,,,0.00,,2013-03-29 18:42:00,
2013-03-29 14:53:00,75.0,38.0,30.25,East,100,1.0,9.0,26,0.00,,,0.00,,2013-03-29 18:53:00,
2013-03-29 15:02:00,74.0,37.0,30.25,ENE,75,3.0,8.0,26,0.00,,,0.00,,2013-03-29 19:02:00,
2013-03-29 15:12:00,75.0,38.0,30.24,SE,136,3.0,8.0,26,0.00,,,0.00,,2013-03-29 19:12:00,
2013-03-29 15:23:00,75.0,38.0,30.24,SE,136,3.0,8.0,26,0.00,,,0.00,,2013-03-29 19:23:00,
2013-03-29 15:32:00,75.0,38.0,30.24,SSW,203,0.0,6.0,26,0.00,,,0.00,,2013-03-29 19:32:00,
2013-03-29 15:42:00,75.0,38.0,30.24,SSW,203,0.0,6.0,26,0.00,,,0.00,,2013-03-29 19:42:00,
2013-03-29 15:53:00,77.0,37.0,30.23,East,84,0.0,8.0,24,0.00,,,0.00,,2013-03-29 19:53:00,
2013-03-29 16:02:00,77.0,37.0,30.23,NNE,25,1.0,8.0,24,0.00,,,0.00,,2013-03-29 20:02:00,
2013-03-29 16:12:00,77.0,37.0,30.23,NNE,25,1.0,8.0,24,0.00,,,0.00,,2013-03-29 20:12:00,
2013-03-29 16:22:00,76.0,37.0,30.22,NE,48,0.0,8.0,24,0.00,,,0.00,,2013-03-29 20:22:00,
2013-03-29 16:33:00,76.0,36.0,30.22,SE,135,1.0,4.0,23,0.00,,,0.00,,2013-03-29 20:33:00,
2013-03-29 16:42:00,76.0,36.0,30.22,SE,135,1.0,4.0,23,0.00,,,0.00,,2013-03-29 20:42:00,
2013-03-29 16:52:00,77.0,36.0,30.21,WSW,237,4.0,7.0,23,0.00,,,0.00,,2013-03-29 20:52:00,
2013-03-29 17:02:00,77.0,37.0,30.21,ENE,77,5.0,8.0,24,0.00,,,0.00,,2013-03-29 21:02:00,
2013-03-29 17:12:00,77.0,37.0,30.21,ENE,77,5.0,8.0,24,0.00,,,0.00,,2013-03-29 21:12:00,
2013-03-29 17:22:00,77.0,38.0,30.21,East,96,0.0,1.0,25,0.00,,,0.00,,2013-03-29 21:22:00,
2013-03-29 17:33:00,77.0,38.0,30.20,East,101,1.0,6.0,25,0.00,,,0.00,,2013-03-29 21:33:00,
2013-03-29 17:43:00,77.0,38.0,30.20,East,101,1.0,6.0,25,0.00,,,0.00,,2013-03-29 21:43:00,
2013-03-29 17:53:00,76.0,37.0,30.20,NNE,32,0.0,4.0,24,0.00,,,0.00,,2013-03-29 21:53:00,
2013-03-29 18:03:00,76.0,37.0,30.20,NNE,30,0.0,3.0,24,0.00,,,0.00,,2013-03-29 22:03:00,
2013-03-29 18:13:00,76.0,37.0,30.20,NNE,30,0.0,3.0,24,0.00,,,0.00,,2013-03-29 22:13:00,
2013-03-29 18:23:00,77.0,37.0,30.19,NNE,28,0.0,1.0,24,0.00,,,0.00,,2013-03-29 22:23:00,
2013-03-29 18:33:00,76.0,37.0,30.20,NE,51,0.0,3.0,24,0.00,,,0.00,,2013-03-29 22:33:00,
2013-03-29 18:42:00,76.0,37.0,30.20,NE,51,0.0,3.0,24,0.00,,,0.00,,2013-03-29 22:42:00,
2013-03-29 18:54:00,76.0,38.0,30.20,NE,51,0.0,1.0,25,0.00,,,0.00,,2013-03-29 22:54:00,
2013-03-29 19:03:00,72.0,48.0,30.20,NNE,23,4.0,11.0,43,0.00,,,0.00,,2013-03-29 23:03:00,
2013-03-29 19:12:00,72.0,48.0,30.20,NNE,23,4.0,11.0,43,0.00,,,0.00,,2013-03-29 23:12:00,
2013-03-29 19:22:00,70.0,48.0,30.21,NNE,23,4.0,13.0,45,0.00,,,0.00,,2013-03-29 23:22:00,
2013-03-29 19:32:00,69.0,46.0,30.20,NNE,23,0.0,8.0,44,0.00,,,0.00,,2013-03-29 23:32:00,
2013-03-29 19:42:00,69.0,46.0,30.20,NNE,23,0.0,8.0,44,0.00,,,0.00,,2013-03-29 23:42:00,
2013-03-29 19:53:00,68.0,46.0,30.21,NNE,23,2.0,6.0,46,0.00,,,0.00,,2013-03-29 23:53:00,
2013-03-29 20:03:00,67.0,46.0,30.22,NNE,23,0.0,2.0,47,0.00,,,0.00,,2013-03-30 00:03:00,
2013-03-29 20:12:00,67.0,46.0,30.22,NNE,23,0.0,2.0,47,0.00,,,0.00,,2013-03-30 00:12:00,
2013-03-29 20:22:00,66.0,46.0,30.22,NNE,23,0.0,0.0,49,0.00,,,0.00,,2013-03-30 00:22:00,
2013-03-29 20:32:00,64.0,47.0,30.22,NNE,23,0.0,0.0,54,0.00,,,0.00,,2013-03-30 00:32:00,
2013-03-29 20:42:00,64.0,47.0,30.22,NNE,23,0.0,0.0,54,0.00,,,0.00,,2013-03-30 00:42:00,
2013-03-29 20:53:00,63.0,47.0,30.23,NNE,23,0.0,0.0,56,0.00,,,0.00,,2013-03-30 00:53:00,
2013-03-29 21:03:00,62.0,47.0,30.23,NNE,23,0.0,0.0,58,0.00,,,0.00,,2013-03-30 01:03:00,
2013-03-29 21:12:00,62.0,47.0,30.23,NNE,23,0.0,0.0,58,0.00,,,0.00,,2013-03-30 01:12:00,
2013-03-29 21:22:00,61.0,49.0,30.24,NNE,23,0.0,0.0,64,0.00,,,0.00,,2013-03-30 01:22:00,
2013-03-29 21:33:00,59.0,47.0,30.24,NNE,23,0.0,0.0,65,0.00,,,0.00,,2013-03-30 01:33:00,
2013-03-29 21:43:00,59.0,47.0,30.24,NNE,23,0.0,0.0,65,0.00,,,0.00,,2013-03-30 01:43:00,
2013-03-29 21:53:00,58.0,47.0,30.24,NNE,23,0.0,0.0,67,0.00,,,0.00,,2013-03-30 01:53:00,
2013-03-29 22:03:00,58.0,48.0,30.25,NNE,23,0.0,0.0,69,0.00,,,0.00,,2013-03-30 02:03:00,
2013-03-29 22:12:00,58.0,48.0,30.25,NNE,23,0.0,0.0,69,0.00,,,0.00,,2013-03-30 02:12:00,
2013-03-29 22:22:00,57.0,47.0,30.25,NNE,23,0.0,0.0,70,0.00,,,0.00,,2013-03-30 02:22:00,
2013-03-29 22:33:00,57.0,48.0,30.25,NNE,23,0.0,0.0,71,0.00,,,0.00,,2013-03-30 02:33:00,
2013-03-29 22:42:00,57.0,48.0,30.25,NNE,23,0.0,0.0,71,0.00,,,0.00,,2013-03-30 02:42:00,
2013-03-29 22:53:00,56.0,47.0,30.25,NNE,23,0.0,0.0,73,0.00,,,0.00,,2013-03-30 02:53:00,
2013-03-29 23:03:00,56.0,48.0,30.25,NNE,23,0.0,0.0,74,0.00,,,0.00,,2013-03-30 03:03:00,
2013-03-29 23:12:00,55.0,47.0,30.25,NNE,23,0.0,0.0,75,0.00,,,0.00,,2013-03-30 03:12:00,
2013-03-29 23:22:00,55.0,47.0,30.25,NNE,23,0.0,0.0,75,0.00,,,0.00,,2013-03-30 03:22:00,
2013-03-29 23:33:00,56.0,48.0,30.25,NNE,23,0.0,0.0,75,0.00,,,0.00,,2013-03-30 03:33:00,
2013-03-29 23:43:00,56.0,48.0,30.25,NNE,23,0.0,0.0,75,0.00,,,0.00,,2013-03-30 03:43:00,
2013-03-29 23:53:00,58.0,48.0,30.27,ESE,103,0.0,5.0,69,0.00,,,0.00,,2013-03-30 03:53:00,